Location: Br�ttisellen
(47.4227°N, 8.6287°E)
Time: 13:24:10
(UTC+00:00)

ARGOS Delta rocket - Pass Details

Date: 09 April 2020
Orbit: 634 x 839 km, 96.4° (Epoch: 26 May)

Event Time Altitude Azimuth Distance (km) Brightness Sun altitude
Rises 18:44:21 0° 173° (S) 3,296 7.0 -6.9°
Reaches altitude 10° 18:46:39 10° 175° (S) 2,392 6.3 -7.3°
Maximum altitude 18:52:00 73° 260° (W) 870 4.5 -8.1°
Drops below altitude 10° 18:57:31 10° 345° (NNW) 2,466 7.2 -9.0°
Sets 18:59:56 0° 348° (NNW) 3,405 7.9 -9.4°
